User: anonymous   Login
Location: Terra Rouge Observatory
(46.0000°N, 62.7500°W)
Time: 17:40:46
(UTC-03:00)
Language:

NOSS 3-1 (A) - Orbit

View from above orbital plane
View from above orbital plane
View from above satellite
View from above satellite

Ground track
Ground track

The orbit data is extracted from the following two-line orbital elements,

1 26905U 01040A   17117.07208765 0.00000000  00000-0  00000-0 0    02
2 26905  63.4120 164.1217 0367000 358.4838   1.5162 13.40748578    09
Epoch (UTC): 27 April 2017 01:43:48
Eccentricity: 0.0367000
inclination: 63.4120°
perigee height: 832 km
apogee height: 1381 km
right ascension of ascending node: 164.1217°
argument of perigee: 358.4838°
revolutions per day: 13.40748578
mean anomaly at epoch: 1.5162°
orbit number at epoch: 0

The dashed part of the orbit path shows where the satellite is in the earth's shadow,  

DLR